Hourly Data Report for August 19, 2021

ALGONQUIN PARK EAST GATE
ONTARIO
Current Station Operator: ECCC - MSC

45°32'00.000" N
78°16'00.000" W
397.00 m
6080192
71581
TNK

Download Data

Hourly Data (August 2021)
Hourly Data Report for August 19, 2021
TIME
LST
Temp Definition
°C
Dew Point Definition
°C
Rel Hum Definition
%
Precip. Amount Definition
mm

Wind Dir Definition
10's deg

Wind Spd Definition
km/h
Visibility Definition
km
Stn Press Definition
kPa
Hmdx Definition


Wind Chill Definition


Weather Definition


00:00 17.5 16.9 96 0.0   0   97.26     LegendNANA
01:00 16.6 16.1 97 0.0   0   97.25     LegendNANA
02:00 16.0 15.4 97 0.0 11 1   97.21     LegendNANA
03:00 16.1 15.8 98 0.0   0   97.19     LegendNANA
04:00 15.3 15.0 98 0.0   0   97.14     LegendNANA
05:00 15.0 14.7 98 0.0   0   97.11     LegendNANA
06:00 14.4 14.0 98 0.0   0   97.13     LegendNANA
07:00 15.9 15.2 96 0.0   0   97.15     LegendNANA
08:00 21.1 18.6 86 0.0 0 1   97.16 28   LegendNANA
09:00 24.5 18.4 69 0.0   0   97.13 31   LegendNANA
10:00 25.0 18.3 67 0.0 8 2   97.12 31   LegendNANA
11:00 26.1 17.5 59 0.0 2 4   97.11 32   LegendNANA
12:00 27.3 15.7 49 0.0 28 3   97.06 32   LegendNANA
13:00 28.0 14.9 45 0.0 30 5   97.05 32   LegendNANA
14:00 27.3 15.6 49 0.0 34 4   97.03 32   LegendNANA
15:00 27.7 15.0 46 0.0 35 5   96.99 32   LegendNANA
16:00 26.9 15.6 50 0.0 34 4   96.96 31   LegendNANA
17:00 26.9 16.0 51 0.0 34 3   96.92 32   LegendNANA
18:00 24.6 17.4 64 0.0 0 1   96.88 30   LegendNANA
19:00 21.3 18.0 81 0.0   0   96.89 27   LegendNANA
20:00 19.3 17.6 90 0.0 11 2   96.94     LegendNANA
21:00 18.0 16.7 92 0.0   0   96.98     LegendNANA
22:00 17.2 16.2 94 0.0   0   96.97     LegendNANA
23:00 16.6 15.7 95 0.0   0   96.93     LegendNANA

Notes on Data Quality.

Legend

  • E = Estimated
  • M = Missing
  • NA = Not Available*
  • [empty] = Indicates an unobserved value
Date modified: